GFSMA_850_dewp_072.txt.gz
Dewpoint
9 7 4 5 2 2 3 5 6 9 9 9 8 9 9 9 8 7 6 4 0 -3 -4 -6 -9 -14 -15 -15 -15 -18 -18 -19 -20 -20 -20 -20 -20 -20 -20 -20 -21 -21 -21
10 9 10 8 8 9 8 10 9 11 10 10 9 8 8 7 7 6 5 3 1 -2 -5 -7 -9 -12 -14 -15 -16 -17 -18 -19 -18 -19 -18 -18 -18 -19 -19 -20 -20 -21 -21
10 10 11 11 10 9 9 9 10 10 10 9 10 8 7 6 7 7 5 3 1 -0 -4 -6 -8 -11 -13 -15 -16 -16 -17 -16 -16 -16 -15 -14 -15 -16 -17 -19 -20 -21 -20
8 9 9 11 12 9 10 9 9 10 10 9 9 7 6 6 6 7 6 4 2 -0 -2 -4 -7 -11 -12 -13 -14 -15 -15 -15 -14 -12 -12 -11 -11 -12 -14 -17 -19 -20 -17
9 8 8 10 11 12 10 10 9 9 10 9 8 7 6 6 7 7 7 5 2 -1 -2 -3 -5 -10 -11 -13 -14 -14 -14 -15 -14 -13 -13 -12 -11 -12 -14 -16 -16 -16 -5
11 10 10 9 10 11 11 11 10 10 10 9 8 7 6 6 7 8 7 7 4 -0 -2 -3 -4 -6 -10 -12 -13 -14 -14 -14 -14 -13 -13 -13 -13 -13 -14 -14 -14 -8 -0
12 11 11 11 10 11 10 11 11 11 10 9 9 7 6 6 7 8 8 7 6 4 -2 -3 -4 -5 -8 -10 -11 -12 -12 -13 -13 -12 -13 -13 -13 -13 -15 -15 -16 -12 -3
11 11 11 11 11 11 11 11 11 11 11 10 9 8 6 5 6 8 8 8 7 6 0 -3 -4 -5 -6 -8 -9 -11 -11 -12 -12 -12 -12 -13 -13 -13 -14 -16 -14 -8 -1
11 11 9 10 10 11 12 12 10 11 11 11 10 8 6 7 7 7 7 8 7 5 4 -1 -3 -4 -5 -6 -8 -9 -9 -10 -10 -11 -11 -13 -14 -15 -15 -14 -10 -5 1
5 10 9 10 11 11 12 10 11 9 10 11 10 9 8 7 7 6 5 5 5 4 3 1 -1 -3 -4 -6 -7 -8 -9 -8 -9 -10 -10 -12 -14 -15 -14 -8 -10 -8 -0
6 6 7 9 11 11 12 12 12 12 10 10 11 11 9 8 7 6 5 4 3 3 1 1 -0 -2 -4 -5 -6 -8 -8 -8 -8 -9 -10 -13 -15 -15 -11 -6 -4 -4 -7
11 11 11 11 10 12 13 12 12 12 11 10 11 11 11 9 8 7 4 4 3 2 -0 -1 -2 -2 -3 -5 -6 -7 -7 -7 -8 -9 -11 -14 -10 -7 -8 -7 -10 -17 -14
10 11 11 10 11 11 11 12 11 11 11 11 11 11 10 10 9 9 8 5 4 2 -0 0 -2 -3 -4 -5 -5 -4 -0 0 -2 -7 -7 -4 -4 -9 -5 -11 -20 -23 -19
11 11 10 10 11 11 11 11 10 10 10 10 10 10 10 9 9 9 8 8 6 3 2 2 0 -2 -2 -1 -3 1 -0 1 -3 -2 -1 0 0 -1 -6 -19 -28 -29 -26
10 10 10 10 9 10 10 10 9 9 9 9 9 10 9 9 9 8 8 8 6 4 2 -1 2 3 3 3 3 -1 -2 -2 -1 0 0 -1 -10 -21 -26 -28 -28 -20 -18
5 5 6 5 3 6 6 6 9 8 8 8 8 8 8 8 8 8 7 6 4 3 4 3 3 2 2 2 -0 -1 -0 0 0 -0 -7 -18 -21 -23 -17 -22 -26 -23 -12
-1 -1 -2 -2 -2 -1 0 1 3 6 6 7 7 7 7 7 7 6 5 4 4 3 3 2 2 1 0 -1 -0 -1 -0 -1 -4 -9 -15 -23 -24 -18 -23 -24 -20 -12 -6
-1 -1 0 -0 -0 0 2 2 4 5 5 5 6 6 6 5 4 4 3 3 2 1 1 0 0 -0 -0 -0 -1 -1 -8 -18 -22 -21 -19 -14 -10 -13 -14 -14 -12 -10 -8
0 0 1 1 2 3 4 5 5 5 5 5 5 5 4 3 3 2 -0 -1 -1 -0 0 0 -0 -1 -3 -13 -18 -20 -17 -17 -16 -15 -17 -20 -14 -15 -13 -9 -12 -8 -6
2 2 3 3 4 4 4 4 4 4 4 3 2 1 1 -0 -2 -2 -1 -0 -0 0 -0 -2 -9 -20 -20 -15 -14 -15 -14 -14 -17 -20 -17 -14 -13 -13 -12 -13 -13 -12 -12
4 3 3 3 3 3 3 2 3 2 1 0 -1 -2 -3 -2 -1 -1 -1 -1 -4 -8 -11 -22 -22 -18 -15 -13 -11 -9 -10 -17 -20 -15 -13 -12 -12 -13 -13 -13 -12 -12 -12
1 1 1 1 1 0 -1 -1 -2 -1 -2 -3 -3 -1 -1 -2 -2 -1 -3 -7 -19 -22 -23 -23 -23 -19 -12 -9 -8 -10 -16 -18 -14 -12 -12 -14 -12 -12 -12 -12 -11 -11 -10
-1 -1 -1 -1 -1 -2 -2 -2 -2 -1 -1 -1 -1 -1 -1 -1 -2 -7 -20 -23 -25 -22 -21 -20 -17 -15 -13 -13 -17 -19 -15 -13 -12 -12 -10 -13 -11 -11 -12 -11 -11 -11 -11
-1 -1 -1 -1 -2 -2 -2 -2 -2 -1 -1 -1 -2 -6 -14 -22 -23 -23 -23 -21 -15 -14 -13 -15 -18 -20 -22 -20 -16 -13 -12 -12 -12 -12 -10 -10 -11 -11 -11 -11 -11 -11 -11
-2 -2 -2 -2 -2 -2 -2 -5 -12 -19 -21 -22 -23 -24 -24 -23 -22 -23 -18 -16 -14 -15 -16 -20 -22 -17 -14 -13 -13 -12 -12 -11 -11 -11 -11 -9 -9 -9 -10 -11 -11 -11 -11
-2 -2 -7 -16 -19 -20 -22 -23 -23 -21 -21 -22 -23 -23 -22 -22 -24 -24 -24 -21 -20 -19 -21 -18 -12 -13 -12 -12 -12 -11 -11 -11 -10 -10 -10 -9 -9 -9 -9 -11 -11 -11 -11

GFSMA_850_dewp_075.txt.gz
Dewpoint
7 7 5 1 -2 -3 -2 -1 -1 -1 3 7 8 7 7 9 9 9 7 6 4 0 -3 -5 -8 -11 -15 -16 -16 -18 -18 -18 -19 -19 -18 -18 -17 -18 -18 -19 -19 -20 -20
9 9 7 5 6 4 4 4 5 7 8 8 9 8 9 8 8 7 7 6 4 1 -1 -5 -6 -9 -13 -15 -16 -17 -17 -18 -17 -17 -16 -14 -13 -14 -15 -16 -18 -19 -19
11 10 7 7 8 7 7 7 8 9 11 11 9 9 8 8 8 6 6 6 5 3 -0 -3 -5 -7 -11 -14 -15 -16 -15 -15 -14 -14 -13 -11 -11 -11 -12 -13 -15 -17 -18
11 10 8 8 9 9 9 8 8 9 10 10 10 10 9 7 7 6 6 6 6 4 1 -1 -3 -5 -10 -12 -13 -14 -13 -13 -13 -12 -11 -9 -9 -8 -9 -10 -12 -13 -15
10 9 9 8 10 11 11 10 8 8 9 10 10 9 9 7 6 5 6 7 6 5 3 -0 -2 -4 -7 -10 -12 -13 -12 -12 -12 -12 -11 -10 -9 -9 -9 -9 -9 -11 -10
10 10 9 9 8 9 10 11 10 9 8 9 10 9 9 7 6 6 5 7 7 6 5 2 -2 -2 -5 -9 -11 -12 -12 -12 -13 -13 -12 -11 -11 -10 -10 -10 -10 -9 -7
11 11 10 10 10 10 10 10 11 11 10 9 10 10 9 7 6 6 6 6 7 7 6 5 2 -2 -3 -5 -8 -11 -12 -12 -13 -13 -13 -12 -13 -13 -12 -12 -13 -12 -6
11 11 11 10 10 11 11 11 11 11 11 11 10 10 8 8 7 6 6 6 7 7 7 6 5 -0 -2 -3 -6 -8 -10 -12 -12 -12 -12 -12 -12 -13 -13 -13 -12 -11 -6
10 10 12 12 11 11 11 11 10 11 9 10 10 10 8 8 7 6 6 6 7 7 6 5 4 1 -1 -2 -4 -7 -8 -11 -12 -11 -11 -11 -11 -13 -14 -13 -7 -2 -0
9 10 10 11 11 12 12 11 11 9 9 9 11 11 10 8 7 7 6 6 6 6 5 3 3 2 0 -2 -3 -4 -7 -9 -9 -10 -11 -10 -11 -12 -12 -9 -2 1 2
9 8 7 7 9 11 11 11 11 11 10 10 10 11 10 10 9 8 7 7 6 6 5 3 2 2 1 -1 -2 -4 -4 -5 -7 -8 -9 -10 -11 -11 -12 -10 -0 0 0
11 10 8 11 12 11 11 11 11 11 11 11 11 11 11 10 9 9 7 7 6 4 5 3 1 2 1 -1 -1 -1 -4 -5 -5 -5 -6 -6 -6 -3 -7 -4 -1 -1 -1
10 10 10 10 10 10 10 11 11 10 10 10 10 11 10 10 11 10 9 7 6 6 5 3 2 1 -1 -1 1 -2 1 1 2 2 -1 -1 -1 -3 -4 -1 -0 -0 -5
10 10 10 10 11 10 10 10 10 9 9 9 9 9 10 10 10 10 9 9 7 6 4 3 1 0 0 1 2 1 1 2 2 2 0 -1 -2 -1 0 -1 -9 -15 -12
9 9 10 10 10 9 10 7 9 8 9 8 8 8 9 9 10 9 9 7 7 6 5 5 3 2 3 3 2 2 2 1 0 0 -1 -1 -0 -2 -11 -15 -16 -15 -9
5 6 6 7 8 8 5 3 3 4 5 8 7 8 7 8 8 8 8 7 6 5 4 4 4 3 2 2 1 1 1 0 -0 -0 -0 -1 -8 -13 -11 -16 -13 -11 -10
1 1 1 -0 -1 -2 -2 -1 -0 1 3 5 6 6 5 6 6 7 7 6 5 4 3 3 3 2 2 2 1 -0 -0 -0 -0 -1 -3 -10 -14 -17 -14 -14 -9 -5 -5
-1 -0 -1 -1 -2 -2 -1 1 1 3 4 4 4 5 5 5 5 5 5 4 4 3 2 2 1 1 0 -0 0 -0 -1 -2 -11 -17 -19 -17 -16 -17 -16 -9 -7 -6 -5
0 0 0 -0 0 1 2 3 4 4 4 4 4 4 4 4 3 2 2 1 0 -0 0 0 0 -0 -0 -1 -4 -12 -17 -16 -16 -15 -18 -19 -17 -14 -14 -11 -8 -7 -8
2 2 2 3 3 3 3 3 3 3 3 3 4 3 3 2 1 -1 -1 -0 -0 -0 0 -0 -1 -4 -9 -15 -17 -17 -16 -14 -13 -17 -17 -15 -13 -13 -13 -13 -13 -12 -12
3 3 3 3 3 3 3 2 2 2 2 2 1 1 -0 -1 -1 -1 -1 -1 -1 -1 -2 -5 -17 -21 -19 -15 -13 -12 -14 -13 -18 -16 -13 -12 -13 -13 -12 -12 -12 -11 -12
2 1 1 1 1 -0 -1 -1 -1 -1 -1 -2 -2 -1 -1 -1 -1 -1 -1 -1 -1 -13 -19 -20 -20 -22 -16 -13 -12 -13 -16 -19 -14 -13 -13 -13 -12 -12 -12 -11 -11 -11 -11
-0 -1 -1 -1 -1 -1 -1 -1 -1 -1 -1 -1 -1 -1 -1 -2 -2 -4 -13 -21 -22 -23 -23 -20 -19 -17 -16 -16 -17 -20 -17 -13 -13 -12 -12 -13 -12 -12 -11 -11 -11 -11 -11
-1 -1 -1 -1 -2 -2 -2 -2 -2 -1 -1 -2 -4 -7 -13 -20 -23 -23 -20 -20 -17 -14 -15 -14 -16 -18 -19 -20 -18 -14 -13 -12 -12 -12 -11 -11 -11 -12 -13 -13 -12 -11 -11
-2 -2 -2 -2 -2 -4 -6 -12 -19 -22 -22 -23 -23 -23 -23 -22 -19 -21 -21 -18 -16 -16 -15 -14 -18 -17 -15 -13 -12 -12 -12 -12 -12 -11 -10 -10 -10 -12 -13 -13 -12 -11 -10
-2 -5 -14 -19 -21 -23 -24 -24 -24 -24 -25 -25 -25 -23 -21 -22 -23 -23 -24 -23 -22 -20 -19 -21 -14 -12 -12 -12 -12 -11 -11 -11 -10 -10 -10 -10 -10 -9 -10 -11 -11 -11 -11

GFSMA_850_dewp_078.txt.gz
Dewpoint
3 5 5 3 -0 -3 -3 -1 0 -1 -1 4 6 5 7 9 9 9 9 8 6 5 2 -1 -4 -7 -12 -14 -16 -16 -17 -18 -18 -18 -18 -17 -16 -16 -16 -17 -17 -18 -18
7 6 7 5 2 2 -0 -0 0 1 0 3 5 6 6 7 8 9 9 8 6 5 3 0 -3 -6 -9 -13 -15 -17 -16 -17 -18 -17 -16 -14 -14 -13 -13 -14 -15 -16 -16
8 8 8 7 5 5 6 6 5 6 7 8 8 9 8 8 7 8 8 7 6 6 4 2 -1 -3 -6 -10 -14 -15 -16 -16 -16 -15 -14 -12 -11 -11 -11 -12 -13 -13 -14
10 9 9 8 7 7 8 8 8 7 7 9 9 9 9 9 8 7 7 7 6 6 5 4 1 -1 -3 -7 -10 -14 -15 -14 -15 -15 -13 -11 -10 -10 -10 -10 -11 -11 -12
10 9 8 8 7 8 9 10 10 9 8 8 9 10 10 9 9 8 7 6 5 6 6 5 3 1 -1 -3 -7 -9 -12 -14 -14 -15 -14 -12 -11 -9 -9 -9 -9 -10 -9
10 9 9 9 8 8 8 10 11 11 10 9 9 10 10 10 9 9 7 6 5 6 7 6 5 3 0 -1 -4 -1 -4 -12 -14 -15 -15 -14 -13 -11 -10 -9 -9 -8 -7
11 11 10 10 10 9 9 9 10 11 11 11 10 9 10 10 10 9 8 6 6 6 6 6 6 5 3 -0 -2 -5 2 -1 -11 -14 -14 -14 -14 -13 -13 -12 -12 -11 -10
11 12 11 11 11 10 10 10 11 11 11 11 11 10 10 10 9 9 8 7 6 6 5 6 6 5 5 3 -0 -2 -4 3 1 -10 -13 -13 -12 -12 -12 -12 -11 -6 -2
11 11 11 10 11 11 12 11 11 11 11 11 11 11 10 9 9 8 7 7 7 6 5 5 6 5 4 3 2 1 -1 -3 -3 -5 -1 -3 -5 -9 -8 -6 -1 1 2
10 10 10 10 11 12 12 12 12 12 12 12 11 11 11 10 9 8 8 7 7 6 6 6 5 4 3 3 2 1 0 -0 -3 -5 -0 1 1 1 1 1 1 2 2
9 8 10 10 10 10 10 11 12 11 11 11 11 10 10 11 10 9 8 9 8 7 7 7 7 6 5 5 4 1 0 1 -1 -3 -3 -2 -1 -1 0 1 2 2 2
8 11 10 9 8 6 10 10 12 11 10 10 11 11 10 10 10 10 9 9 9 8 8 7 6 6 6 4 4 4 3 1 -1 1 1 0 1 2 1 1 0 0 0
7 8 10 10 9 10 10 10 10 10 9 9 9 10 9 10 9 10 9 9 9 8 7 7 5 5 5 4 4 3 1 -1 2 2 2 2 1 1 0 0 0 -0 -0
9 10 10 10 9 9 10 10 9 9 9 9 9 8 8 8 8 9 9 9 8 8 7 7 7 5 5 3 3 1 0 2 2 1 1 0 0 -0 -0 -1 -1 -2 -2
6 9 10 9 10 10 9 9 9 8 6 8 8 8 7 7 8 8 9 8 8 7 6 6 5 5 4 1 0 1 1 1 1 1 0 0 -0 -1 -1 -2 -3 -3 -3
3 6 8 9 9 9 9 8 8 3 1 3 6 4 7 5 6 5 7 7 7 6 5 5 5 4 2 2 2 2 1 1 0 -0 -1 -0 -1 -2 -4 -6 -8 -7 -8
1 2 3 3 3 3 2 1 0 -0 0 1 2 3 5 5 5 4 5 5 6 5 4 4 3 3 2 2 1 0 0 0 -0 -0 -1 -1 -5 -9 -15 -10 -5 -6 -6
1 0 0 -0 -1 -1 -1 -1 -0 0 1 2 3 3 4 4 4 4 4 5 4 3 3 2 2 2 1 1 0 -0 -1 -2 -2 -4 -13 -16 -17 -16 -18 -17 -17 -14 -9
0 0 0 -0 -0 -0 0 1 2 2 3 3 3 3 3 3 4 4 4 3 3 2 1 0 0 0 0 -0 -1 -1 -2 -10 -15 -15 -14 -17 -21 -21 -17 -15 -13 -9 -10
1 1 1 1 1 2 2 2 3 3 3 3 2 2 2 3 3 2 1 -0 -0 0 0 0 0 -0 -1 -2 -10 -14 -14 -15 -15 -15 -20 -20 -15 -14 -13 -13 -13 -13 -13
2 2 3 2 2 3 2 3 3 2 2 2 2 1 1 0 -0 -1 -1 -0 -0 0 -0 -1 -1 -4 -14 -14 -15 -16 -13 -13 -16 -19 -15 -14 -13 -13 -13 -12 -12 -12 -12
2 2 1 1 1 1 1 0 -0 -0 -0 -1 -1 -1 -1 -1 -1 -1 -1 -1 -1 -2 -4 -10 -20 -20 -17 -19 -16 -14 -14 -18 -16 -14 -13 -13 -13 -13 -12 -12 -11 -11 -11
0 -0 -0 -0 -1 -1 -1 -1 -1 -1 -1 -1 -1 -1 -1 -2 -1 -2 -5 -11 -21 -25 -23 -22 -21 -19 -17 -15 -16 -18 -20 -16 -14 -13 -13 -13 -13 -12 -12 -12 -12 -12 -11
-1 -1 -1 -1 -1 -2 -1 -2 -2 -3 -4 -4 -5 -9 -16 -20 -23 -24 -24 -23 -20 -18 -17 -15 -15 -16 -17 -19 -21 -20 -15 -13 -12 -12 -12 -12 -12 -13 -13 -13 -13 -11 -11
-1 -2 -2 -2 -5 -8 -12 -21 -22 -23 -23 -23 -23 -23 -23 -24 -24 -27 -27 -27 -23 -19 -18 -19 -20 -21 -19 -14 -12 -12 -12 -12 -12 -11 -11 -11 -11 -13 -15 -12 -12 -11 -10
-2 -5 -17 -20 -22 -23 -24 -24 -25 -25 -25 -26 -26 -25 -25 -25 -25 -25 -25 -25 -24 -21 -20 -19 -19 -14 -12 -12 -12 -12 -12 -11 -11 -11 -10 -10 -10 -11 -14 -13 -12 -11 -11

GFSMA_850_dewp_084.txt.gz
Dewpoint
4 -3 -4 -3 -3 -2 -1 -1 1 3 3 -0 -1 1 2 4 5 6 7 7 8 8 7 7 6 4 2 -3 -6 -12 -14 -16 -16 -16 -17 -17 -16 -16 -16 -16 -14 -13 -7
8 3 4 4 4 2 1 -1 -1 -0 1 0 -2 2 4 6 6 6 7 7 7 7 7 7 6 6 5 1 -2 -6 -12 -15 -15 -16 -16 -16 -16 -15 -15 -14 -14 -13 -11
9 7 6 7 7 5 4 3 2 2 2 3 2 2 4 6 7 7 7 7 7 7 7 7 7 6 6 5 2 -1 -6 -13 -15 -15 -16 -16 -15 -14 -14 -13 -14 -12 -11
9 9 9 8 8 8 6 6 6 6 6 6 6 7 7 7 7 8 8 8 8 8 8 7 6 6 6 6 5 5 2 -3 -11 -14 -15 -15 -15 -14 -14 -13 -12 -10 -8
10 10 10 9 9 9 8 8 8 8 9 9 9 9 9 8 8 9 9 9 9 9 9 8 7 5 5 6 6 6 8 6 4 -5 -11 -14 -14 -13 -12 -11 -7 -5 -3
11 11 10 10 10 10 10 9 9 9 9 10 10 10 10 10 10 9 9 9 9 9 9 9 8 6 5 5 6 6 7 7 6 5 0 -6 -9 -12 -10 -7 -1 3 4
12 12 11 10 10 10 10 10 10 10 10 10 10 10 10 11 11 10 10 9 9 9 9 9 8 7 5 5 5 6 6 6 7 6 5 1 -1 -4 -4 2 2 3 3
11 11 10 10 11 11 11 11 11 11 11 10 10 11 11 9 9 9 9 9 8 8 8 8 8 7 6 5 5 6 7 7 7 6 6 6 4 2 -3 -1 2 3 3
10 11 11 11 11 12 12 12 12 12 11 11 11 11 11 9 9 8 8 8 8 8 8 8 7 7 7 6 5 5 6 6 6 6 6 5 5 5 4 4 1 -1 1
11 11 12 12 12 12 11 11 11 12 12 11 10 10 10 10 11 10 10 9 10 9 9 9 8 8 8 7 5 4 6 7 6 5 5 4 3 3 3 3 3 3 3
11 11 10 10 10 10 10 9 10 11 11 12 11 11 9 10 11 10 10 9 9 9 9 8 8 7 7 8 6 6 5 6 6 5 4 4 3 3 3 2 2 2 2
8 9 10 9 10 9 9 8 10 9 9 10 9 9 11 10 10 9 10 8 9 8 7 7 7 7 7 7 7 7 6 5 5 5 4 4 3 2 2 2 2 2 3
3 4 5 6 7 9 9 8 10 9 9 9 9 8 7 8 8 8 8 7 8 8 8 5 6 5 6 6 6 6 5 5 4 4 4 3 2 2 2 2 2 2 3
2 2 3 3 4 10 10 9 10 9 10 9 8 8 8 7 7 7 7 8 7 6 6 5 5 5 5 5 4 4 4 4 3 2 2 2 1 1 1 1 2 1 0
-2 -1 -1 -0 2 5 11 10 9 9 8 8 8 7 7 7 5 6 7 7 7 6 6 5 5 4 4 3 3 4 4 3 2 1 1 0 0 0 -0 -0 0 0 -0
-1 -0 3 5 8 10 9 9 8 9 8 8 6 6 4 2 4 6 6 5 5 5 5 4 5 3 3 3 3 4 3 2 1 1 -0 -0 -0 -0 -0 -1 -1 -1 -1
1 1 3 6 9 9 8 8 8 9 8 7 4 2 1 1 2 3 3 2 3 3 3 3 2 3 3 3 3 3 2 2 1 0 0 -0 -1 -1 -1 -1 -2 -5 -13
1 2 2 3 4 5 5 6 5 4 2 1 -0 0 1 2 2 3 3 3 3 3 3 3 3 3 2 2 2 2 2 1 0 0 -0 -0 -0 -1 -4 -14 -19 -21 -22
2 2 1 1 1 1 1 0 -0 0 0 0 1 2 2 3 3 3 2 2 2 3 2 2 1 1 1 1 1 1 1 0 -0 -0 -2 -11 -16 -17 -17 -20 -22 -18 -15
1 1 1 1 1 1 1 1 1 1 1 2 2 2 2 2 2 2 1 1 1 0 0 0 0 0 0 0 -0 -1 -1 -4 -11 -16 -18 -18 -18 -20 -22 -15 -14 -14 -14
2 1 1 1 1 1 2 2 2 3 3 2 2 1 1 1 1 -0 -0 -0 -0 -0 -0 -0 -0 -1 -1 -2 -6 -11 -15 -16 -17 -18 -19 -22 -20 -18 -14 -14 -14 -14 -13
2 2 2 2 2 2 2 2 2 2 2 1 0 0 0 -0 -1 -1 -1 -1 -1 -2 -2 -2 -4 -6 -13 -16 -17 -17 -19 -19 -20 -23 -22 -16 -14 -14 -13 -13 -13 -13 -12
2 2 1 1 1 1 1 0 -0 -0 -1 -1 -1 -1 -2 -4 -6 -11 -16 -22 -23 -24 -24 -23 -23 -22 -21 -19 -18 -18 -19 -22 -23 -18 -15 -15 -13 -13 -13 -13 -12 -13 -14
1 1 -0 -1 -1 -1 -1 -1 -1 -3 -8 -15 -21 -25 -25 -24 -24 -24 -25 -25 -25 -24 -24 -23 -22 -21 -21 -21 -21 -20 -21 -21 -16 -14 -13 -13 -13 -13 -12 -13 -14 -15 -14
-1 -1 -1 -1 -1 -2 -8 -18 -23 -26 -27 -27 -27 -27 -27 -27 -28 -28 -28 -28 -27 -25 -23 -24 -23 -22 -21 -19 -20 -16 -13 -13 -13 -12 -12 -12 -12 -13 -13 -14 -15 -13 -12
-1 -1 -2 -3 -12 -23 -24 -26 -28 -29 -29 -29 -29 -28 -28 -28 -27 -27 -27 -28 -28 -27 -26 -24 -23 -22 -20 -15 -13 -13 -12 -12 -12 -11 -11 -11 -12 -12 -12 -13 -12 -13 -12

GFSMA_850_dewp_087.txt.gz
Dewpoint
-1 -3 -1 -1 -2 -1 1 1 1 3 4 3 -1 -1 1 2 4 5 6 7 7 8 8 7 6 6 6 5 1 -3 -9 -13 -15 -15 -16 -16 -15 -15 -15 -14 -12 -12 -10
7 6 -1 -1 0 2 1 1 -1 -1 1 2 1 -1 2 4 6 6 7 7 7 7 7 7 7 6 6 6 5 2 -2 -9 -13 -15 -15 -14 -14 -15 -14 -13 -12 -12 -9
8 8 4 5 6 6 3 4 1 1 2 2 3 2 3 5 6 8 8 8 8 8 8 8 7 7 6 6 6 6 4 0 -7 -13 -15 -14 -13 -12 -12 -13 -12 -11 -8
9 9 8 7 7 8 6 5 6 6 6 6 7 7 7 7 8 8 8 8 9 9 9 9 8 7 6 5 6 8 8 7 3 -1 -12 -14 -14 -13 -11 -12 -11 -9 -6
10 10 10 9 9 9 8 8 7 7 8 9 9 9 9 9 9 9 9 9 9 9 9 9 9 8 7 6 5 7 8 8 7 6 4 -8 -13 -14 -12 -7 -4 -3 -1
11 11 10 10 10 10 9 9 9 9 9 9 9 9 9 10 10 10 10 9 9 9 9 9 9 9 8 6 5 5 7 8 7 7 6 5 2 -1 -4 -10 -3 2 3
11 11 11 11 10 10 10 10 10 10 10 10 10 10 10 10 10 9 9 8 8 9 8 8 8 9 8 7 6 5 6 6 8 8 7 6 6 6 5 2 -2 -5 -4
11 11 11 11 11 11 11 11 11 11 11 11 11 11 11 10 9 8 7 7 8 8 8 9 8 8 7 7 6 5 6 6 7 8 6 6 5 5 5 5 4 4 3
10 11 11 11 11 11 11 11 12 12 12 12 11 11 11 10 10 9 9 8 9 9 9 8 9 8 8 8 7 5 5 7 7 7 7 6 6 6 5 4 3 3 4
11 12 12 11 11 11 11 11 11 11 12 12 11 10 10 11 11 10 9 9 9 9 8 9 8 8 8 8 7 7 6 6 7 8 7 6 5 5 4 3 3 2 2
11 11 10 10 10 10 10 9 10 10 10 11 12 11 11 10 11 10 10 9 8 7 8 8 7 7 6 7 7 7 6 6 6 6 6 6 6 5 4 4 3 3 4
10 9 8 8 9 9 10 11 10 8 9 11 10 9 9 9 9 10 9 8 8 7 6 7 6 6 4 5 5 6 6 6 6 5 5 6 5 5 4 3 3 3 3
2 3 6 8 8 7 7 9 10 9 9 9 9 9 8 8 7 8 8 8 8 7 6 6 6 6 4 4 4 5 4 5 5 4 4 4 4 4 3 3 2 2 2
-1 1 2 3 4 5 6 9 11 9 10 10 10 10 8 7 8 7 8 8 7 6 6 5 5 5 4 3 4 3 3 4 4 4 4 3 3 3 2 1 1 1 1
-1 -0 0 1 1 2 3 10 11 10 8 9 9 8 7 8 7 7 6 6 5 6 5 5 5 4 3 2 2 3 3 4 3 4 3 3 2 2 2 1 1 1 1
-3 -3 -2 -2 -0 4 8 10 11 9 10 8 8 8 8 6 6 3 5 5 6 5 5 5 4 3 2 2 2 2 3 3 3 2 1 1 1 1 0 0 0 -0 -0
-0 0 0 2 7 9 9 9 9 8 7 8 8 7 4 3 1 2 3 3 3 2 4 4 3 3 2 2 2 3 2 2 2 2 1 0 0 -0 -0 -0 -0 -0 -1
2 2 2 2 4 7 8 8 8 8 8 8 8 5 1 0 1 1 2 2 3 3 3 3 3 2 2 2 2 2 1 1 1 1 1 0 0 -0 -0 -1 -7 -19 -21
1 2 2 2 2 3 3 4 4 3 2 1 0 -0 -0 1 1 2 2 2 2 3 3 2 2 1 1 1 1 1 0 0 0 -0 -0 -1 -7 -15 -18 -19 -21 -26 -22
1 1 1 1 1 1 1 1 1 0 0 0 0 1 1 1 2 2 2 1 1 1 0 0 0 0 1 0 -0 -0 -1 -1 -3 -6 -13 -19 -19 -20 -20 -23 -18 -15 -14
1 1 1 1 1 1 1 1 1 1 1 2 2 2 1 1 1 0 -0 0 -0 -0 -0 -1 -1 -1 -1 -2 -4 -7 -11 -16 -19 -21 -22 -23 -24 -22 -19 -17 -14 -14 -14
2 2 2 2 1 2 2 2 2 2 3 2 2 1 1 0 -0 -1 -1 -1 -2 -4 -6 -6 -7 -8 -12 -15 -18 -20 -21 -22 -22 -24 -25 -21 -17 -15 -14 -14 -14 -14 -13
2 2 2 2 2 1 2 2 2 2 1 0 -0 -1 -1 -2 -4 -11 -21 -26 -26 -25 -25 -23 -23 -22 -21 -21 -21 -21 -22 -23 -24 -22 -20 -16 -14 -13 -13 -13 -13 -13 -13
2 2 1 1 0 -0 0 -0 -0 -1 -1 -2 -5 -14 -20 -25 -27 -28 -29 -29 -28 -28 -26 -25 -25 -24 -24 -24 -25 -24 -23 -22 -19 -15 -14 -14 -13 -13 -12 -13 -14 -14 -15
1 1 -0 -1 -1 -1 -1 -1 -4 -12 -22 -26 -27 -28 -28 -30 -30 -30 -30 -30 -29 -27 -26 -27 -27 -27 -25 -26 -22 -17 -14 -13 -13 -13 -12 -12 -13 -13 -13 -13 -15 -15 -13
-1 -1 -1 -1 -1 -5 -19 -23 -25 -27 -28 -29 -29 -29 -30 -29 -30 -30 -30 -29 -28 -27 -27 -26 -25 -24 -23 -20 -15 -14 -13 -13 -12 -12 -11 -11 -12 -12 -12 -12 -14 -12 -13

GFSMA_850_dewp_093.txt.gz
Dewpoint
10 10 11 12 13 13 13 12 12 12 12 11 9 3 3 6 8 7 9 7 6 6 7 8 7 7 6 5 5 6 6 1 -4 -10 -14 -14 -14 -14 -13 -12 -11 -10 -9
10 11 12 12 12 12 12 12 11 10 10 11 10 8 4 4 3 6 7 9 7 7 7 7 9 9 8 7 6 5 6 6 5 -0 -7 -13 -14 -14 -14 -13 -12 -11 -10
10 9 11 11 11 11 10 11 11 7 9 9 8 9 7 7 8 8 8 9 10 8 8 8 8 9 10 9 8 8 7 7 7 7 6 1 -8 -12 -13 -13 -13 -12 -10
10 9 9 9 9 10 9 10 10 10 9 10 10 10 8 7 8 10 10 9 9 9 9 9 9 9 9 9 9 9 8 8 7 7 7 6 6 -3 -5 -1 -1 0 -6
12 10 11 11 9 9 9 9 9 10 11 10 9 9 10 9 10 10 9 10 10 9 9 10 9 9 9 9 9 8 8 9 8 8 7 7 7 6 4 6 5 3 1
13 11 12 12 12 10 8 9 10 9 8 10 10 8 9 9 10 9 11 11 11 9 8 9 9 8 9 9 9 8 8 8 9 8 8 8 7 7 6 6 6 5 4
13 13 13 13 13 12 11 11 10 10 9 9 10 9 10 10 10 10 11 11 10 9 8 8 9 8 9 9 8 8 7 7 7 9 8 7 8 7 6 6 6 5 4
12 12 12 12 13 13 11 12 11 10 10 11 10 12 11 11 11 11 10 10 9 9 8 8 9 9 9 9 9 7 7 7 6 7 8 9 8 7 7 6 6 6 5
11 12 12 11 12 12 12 12 11 11 11 11 11 11 12 11 10 10 10 9 9 9 8 9 9 9 9 9 8 8 8 7 7 6 7 8 8 7 7 6 5 5 4
10 10 10 11 11 11 11 11 11 11 11 12 12 11 11 11 11 10 9 9 9 9 8 9 9 8 8 8 7 7 6 6 7 7 6 8 8 7 7 6 5 5 5
6 9 9 8 9 12 11 12 12 12 12 11 12 12 11 11 11 10 8 8 9 8 8 8 8 8 7 7 6 5 4 5 5 6 6 7 7 7 7 6 6 4 4
4 8 9 7 8 9 10 11 11 11 11 11 11 11 12 10 11 10 10 9 9 9 8 7 7 6 6 6 5 6 4 3 4 5 6 7 6 6 7 7 5 5 3
6 1 2 6 9 10 10 10 10 11 11 11 11 12 11 11 11 10 9 9 8 9 8 7 6 6 5 5 5 4 3 3 4 4 5 6 6 6 6 6 5 4 3
5 2 1 2 2 3 4 8 12 12 12 11 11 11 11 10 10 9 9 9 8 8 7 7 6 6 5 4 4 4 3 2 2 3 3 3 4 5 4 5 4 4 4
-1 -2 -2 -2 -1 0 2 4 7 11 12 11 11 11 11 10 10 8 8 9 8 8 6 6 5 4 4 4 4 3 2 2 2 2 2 3 3 4 4 3 3 4 3
-3 -3 -3 -3 -2 -1 0 1 2 5 10 10 11 10 10 10 10 8 7 8 7 7 6 6 5 5 4 4 3 2 2 2 2 2 2 3 3 3 3 2 2 1 1
-2 -2 -2 -2 -2 -2 -1 0 3 4 8 9 9 10 6 9 9 7 7 6 5 4 6 5 5 4 3 2 2 2 2 2 2 2 2 2 2 1 1 1 1 1 0
0 0 1 1 1 2 2 3 5 8 9 9 8 9 8 9 8 7 5 2 1 2 3 3 3 3 3 2 2 2 2 1 2 1 1 1 1 0 0 1 0 -0 -1
1 1 1 2 2 2 4 4 6 7 8 8 8 8 8 7 7 4 0 1 2 2 2 2 3 3 2 2 1 1 1 1 1 0 0 -0 -1 -1 -2 -4 -12 -21 -25
-0 -0 0 1 1 2 3 4 6 7 7 7 7 7 7 5 1 0 1 1 2 2 2 2 2 1 1 0 0 0 -0 -1 -1 -2 -3 -6 -12 -20 -25 -26 -27 -27 -26
-0 0 0 1 1 1 1 2 2 3 3 4 3 2 1 1 1 1 1 1 1 0 0 0 -0 -0 -0 -1 -1 -2 -2 -4 -10 -18 -23 -25 -27 -28 -29 -25 -22 -20 -17
0 0 1 1 1 1 1 1 1 1 1 1 1 1 1 1 1 1 1 0 -0 -0 -1 -1 -2 -2 -4 -6 -9 -13 -19 -22 -16 -22 -26 -28 -28 -25 -22 -17 -16 -15 -15
0 0 1 1 1 1 1 1 1 1 2 2 2 2 2 1 1 0 -0 -1 -2 -6 -13 -18 -18 -17 -18 -23 -25 -25 -25 -25 -26 -24 -27 -22 -19 -16 -15 -14 -15 -14 -14
0 1 1 1 1 1 2 2 2 2 2 2 2 1 0 -0 -1 -3 -13 -25 -27 -28 -29 -28 -27 -26 -27 -26 -27 -27 -27 -27 -26 -22 -17 -16 -14 -14 -14 -14 -14 -14 -14
1 1 1 1 1 1 1 1 2 1 1 1 0 -1 -1 -7 -20 -27 -29 -30 -31 -31 -30 -30 -29 -29 -30 -31 -30 -27 -22 -19 -15 -14 -15 -14 -13 -14 -13 -13 -13 -13 -14
1 1 0 -0 0 -1 -1 -1 -1 -1 -1 -1 -3 -13 -25 -28 -28 -30 -32 -31 -30 -29 -29 -28 -29 -30 -29 -27 -25 -21 -17 -16 -15 -13 -13 -13 -13 -13 -13 -12 -12 -14 -13

GFSMA_850_dewp_096.txt.gz
Dewpoint
5 9 11 11 9 10 9 10 12 12 9 9 7 3 3 4 7 7 6 7 7 7 6 6 7 8 8 7 6 5 5 6 3 -2 -7 -11 -13 -14 -14 -13 -11 -10 -9
10 10 11 12 12 13 12 12 11 9 10 9 10 9 4 2 3 5 6 7 8 8 8 8 8 8 9 9 9 8 6 6 6 6 6 1 -5 -10 -13 -13 -12 -11 -9
10 11 11 12 11 12 10 9 10 9 7 8 8 8 9 6 7 7 7 8 8 8 8 9 9 9 9 9 9 9 8 7 7 7 6 6 5 -2 -5 1 2 3 -0
8 8 9 11 9 10 8 8 7 5 5 6 7 8 8 7 7 8 10 9 9 9 9 9 9 9 9 9 10 10 9 8 8 8 7 7 6 5 4 5 5 4 3
11 10 9 9 8 8 8 7 7 7 8 8 8 8 8 8 8 9 9 10 10 10 9 8 8 9 9 9 9 9 9 9 9 9 8 7 7 6 6 6 6 5 4
11 11 11 11 11 9 8 7 8 8 7 9 8 8 8 8 8 8 9 10 11 11 9 8 8 9 8 8 9 9 8 8 9 9 8 7 8 8 7 6 5 5 5
13 12 11 12 13 11 10 10 9 9 8 8 9 9 9 9 9 10 10 10 10 10 10 8 8 9 9 8 8 8 8 8 8 9 9 8 7 8 7 6 6 4 5
13 13 12 12 13 13 12 11 12 10 10 10 9 10 11 10 11 11 11 11 11 10 9 9 8 9 8 8 8 8 9 8 7 7 8 9 8 8 8 6 6 5 4
12 11 11 11 11 12 12 11 11 11 10 11 11 11 11 11 11 10 11 11 9 9 9 9 8 9 9 8 8 8 8 7 7 7 7 7 8 7 8 7 7 5 4
11 11 11 10 10 10 10 11 11 11 11 11 12 11 12 11 11 11 10 10 9 9 9 9 9 8 8 8 8 7 6 6 6 6 6 7 7 8 7 7 7 5 5
8 7 8 9 8 7 7 8 10 10 10 12 12 12 12 12 12 11 11 11 9 9 9 9 8 8 7 7 6 6 6 5 4 3 5 5 6 7 8 7 7 6 5
8 7 7 8 8 6 6 6 7 9 9 11 12 12 12 11 10 11 11 10 10 10 9 9 8 7 6 6 6 5 5 5 4 2 4 6 6 6 6 8 7 6 5
7 7 7 7 6 2 3 3 4 8 11 12 12 12 12 12 11 10 10 10 9 9 7 6 7 7 6 6 5 5 4 4 3 3 5 5 5 5 7 6 5 5 5
4 4 4 3 2 3 1 1 8 12 12 11 12 12 11 11 10 10 10 9 9 9 8 7 6 6 5 5 4 4 4 3 3 2 3 3 3 3 3 6 5 5 3
7 6 8 7 2 -1 -2 -1 2 5 10 10 10 10 10 10 10 9 10 9 9 8 8 7 6 6 5 4 4 4 3 3 2 2 2 2 2 2 3 3 3 3 2
3 1 -1 -2 -3 -3 -2 -1 0 2 6 9 10 8 9 6 9 10 10 9 8 8 8 7 6 6 5 5 4 3 3 2 2 2 2 2 2 2 2 2 2 2 2
-2 -3 -2 -2 -2 -2 -1 -1 -1 0 3 6 9 10 6 9 9 9 8 9 7 7 6 6 6 5 4 3 2 2 2 2 2 2 2 2 2 1 1 1 1 1 1
-2 -1 -0 -0 0 0 1 1 2 6 8 8 8 8 8 8 8 8 8 8 7 3 2 4 4 4 3 2 2 2 2 2 2 2 2 1 1 1 1 0 0 0 0
0 0 1 1 1 1 2 2 4 5 7 7 7 8 8 8 8 7 6 6 0 0 1 2 3 2 2 2 2 2 1 1 1 0 0 0 0 -1 -1 -2 -4 -9 -17
-0 -1 -1 -0 -0 0 1 2 3 5 6 6 7 7 6 6 6 6 5 0 1 1 1 2 2 2 2 2 1 0 0 -0 -1 -2 -3 -4 -5 -11 -18 -23 -26 -28 -28
-0 -0 -0 -1 -0 -0 0 1 2 2 4 5 5 5 5 6 5 2 1 1 1 1 1 1 1 0 0 -0 -0 -1 -1 -2 -5 -10 -18 -24 -27 -28 -29 -29 -26 -22 -21
0 0 0 -0 0 0 1 1 1 2 2 2 2 2 2 1 1 1 1 1 1 0 -0 -0 -0 -1 -1 -4 -4 -5 -6 -11 -21 -24 -26 -29 -30 -27 -24 -21 -18 -16 -15
1 0 0 0 1 1 1 1 1 1 1 1 1 2 2 1 2 1 1 1 0 -0 -1 -2 -3 -9 -13 -16 -18 -21 -24 -25 -26 -29 -28 -26 -20 -18 -17 -16 -15 -15 -15
0 0 0 0 1 1 1 1 1 2 2 2 2 2 2 1 1 1 -0 -1 -2 -6 -13 -18 -24 -25 -25 -25 -27 -27 -28 -28 -28 -28 -22 -17 -16 -15 -15 -15 -15 -14 -14
0 0 0 0 1 1 1 1 1 1 1 1 1 1 1 0 -1 -1 -8 -22 -27 -26 -27 -29 -28 -29 -29 -30 -30 -30 -30 -26 -23 -18 -16 -15 -16 -15 -14 -14 -14 -14 -14
0 0 0 0 0 0 0 -0 0 0 0 0 1 0 -1 -2 -11 -24 -27 -28 -29 -28 -28 -29 -31 -33 -33 -32 -32 -30 -24 -19 -17 -16 -15 -14 -15 -14 -14 -14 -13 -13 -13

GFSMA_850_dewp_099.txt.gz
Dewpoint
6 5 5 6 6 5 4 6 7 7 8 6 6 4 2 3 5 4 5 6 7 7 7 7 7 8 8 8 8 7 6 5 6 5 1 -5 -10 -13 -13 -12 -11 -10 -9
6 5 7 9 9 9 10 10 9 10 9 7 8 6 4 1 2 3 5 6 7 8 8 8 8 8 9 9 9 8 8 7 6 6 6 5 1 -7 -8 -3 2 3 1
9 9 10 11 11 11 11 11 11 9 7 6 6 6 5 5 5 6 7 7 8 8 8 9 9 9 9 9 9 9 9 8 8 7 7 6 5 2 4 5 5 4 3
9 10 10 11 12 12 12 11 9 8 8 6 5 5 6 6 6 6 7 8 9 9 9 8 8 8 9 9 9 10 9 9 8 8 8 7 7 6 5 5 5 5 4
6 7 9 10 9 9 8 8 7 7 6 6 6 7 7 7 7 8 8 9 10 10 10 9 8 8 8 8 8 8 9 10 10 9 9 7 7 7 6 6 5 4 4
10 9 9 8 9 9 8 8 8 8 7 8 9 8 8 7 7 8 9 10 10 11 11 10 8 8 8 8 8 8 9 9 10 9 9 9 8 7 7 6 6 4 4
12 12 10 9 10 10 8 8 8 9 9 9 9 8 8 8 8 9 10 10 11 10 10 10 9 9 8 9 8 7 8 8 7 8 8 8 8 8 8 7 6 5 5
12 12 11 11 12 12 12 11 10 10 10 10 10 10 10 9 9 10 11 11 11 10 10 10 9 9 8 9 8 8 8 7 7 8 7 8 8 8 8 8 6 6 5
12 12 13 11 12 13 13 12 11 11 11 11 10 11 11 11 10 10 11 11 11 10 10 9 9 8 8 9 8 8 7 6 6 7 7 7 7 8 8 8 7 7 5
12 12 12 11 11 12 11 11 11 11 12 11 11 11 11 11 11 10 11 11 10 10 9 9 9 9 8 8 8 8 7 6 5 5 5 5 7 7 8 8 7 7 5
11 10 10 11 11 10 10 9 9 9 8 9 8 9 9 10 12 11 11 10 9 9 10 9 9 8 8 7 6 5 5 5 5 5 4 3 2 4 6 7 8 7 6
8 8 8 8 10 10 9 8 8 7 7 7 8 8 9 9 12 12 11 10 9 9 9 9 9 8 7 7 6 6 5 4 5 4 2 4 6 5 5 7 8 7 6
9 9 9 9 8 7 6 6 5 6 4 3 2 8 8 11 11 10 11 10 9 9 9 8 8 6 6 6 6 5 4 3 4 4 6 6 4 4 6 6 6 6 5
6 6 6 7 8 7 8 8 6 4 4 2 3 5 9 9 10 10 10 10 10 9 8 9 7 7 6 6 5 3 4 4 4 3 2 3 2 3 3 5 6 6 5
5 6 6 7 4 4 4 4 5 5 3 3 4 7 9 9 9 9 9 9 10 9 9 9 7 7 6 6 5 4 3 3 3 2 2 2 1 2 2 2 3 3 2
9 9 8 8 7 6 1 -1 -2 -2 -3 -1 1 7 8 9 9 9 9 8 9 9 9 8 7 7 6 6 5 4 3 3 3 2 2 2 1 2 2 2 2 2 1
6 5 3 -1 -2 -3 -3 -3 -3 -3 -3 -2 1 6 9 7 10 9 9 7 8 8 8 8 7 6 5 4 3 2 2 2 2 2 1 2 2 2 2 1 1 1 1
-1 -2 -2 -1 -1 -1 -1 -0 0 0 -0 -0 3 5 7 8 6 7 8 9 8 8 8 6 6 5 4 3 2 2 2 2 2 2 1 1 1 1 1 1 0 0 -0
-1 -1 -0 0 0 1 1 1 1 2 3 4 5 7 7 7 7 7 8 7 7 7 5 2 3 3 3 2 2 1 1 1 1 1 1 0 0 0 -0 -1 -2 -3 -8
0 -0 -0 -1 -1 -1 -0 0 0 2 3 5 6 6 6 7 7 7 7 6 6 4 1 1 2 3 2 2 1 1 1 0 -0 -1 -1 -2 -3 -4 -7 -12 -18 -25 -27
-0 -0 -0 -0 -0 -0 -1 -1 0 0 2 3 5 5 5 5 5 5 5 5 3 1 1 1 2 2 2 2 1 0 -0 -1 -2 -4 -8 -16 -21 -24 -25 -27 -29 -27 -24
0 0 0 0 0 0 0 0 0 1 1 2 3 4 4 4 5 5 4 1 1 1 1 1 1 1 0 0 -1 -1 -2 -4 -8 -18 -21 -25 -28 -27 -26 -24 -21 -18 -17
1 1 1 0 0 0 -0 0 1 1 1 1 2 2 2 2 1 1 1 1 1 1 0 -0 -0 -1 -2 -3 -6 -7 -8 -12 -23 -26 -26 -28 -25 -21 -19 -17 -16 -15 -15
1 1 0 0 0 0 -0 0 1 1 1 1 2 2 2 2 2 2 1 1 0 0 -0 -1 -2 -5 -12 -13 -18 -20 -23 -25 -27 -28 -28 -23 -18 -15 -15 -15 -15 -15 -14
1 1 1 0 0 -0 -0 0 1 1 1 1 1 1 1 2 1 1 1 -0 -1 -2 -7 -17 -20 -25 -24 -23 -24 -26 -29 -29 -30 -25 -19 -17 -17 -15 -14 -15 -15 -14 -14
1 1 0 0 0 -0 -0 0 1 -0 0 0 0 0 1 0 -0 -1 -1 -7 -21 -25 -26 -27 -27 -30 -29 -29 -30 -31 -30 -29 -23 -19 -17 -16 -16 -15 -15 -14 -14 -13 -13

GFSMA_850_dewp_102.txt.gz
Dewpoint
3 3 6 4 3 2 3 4 5 8 7 4 4 3 4 3 3 3 4 5 6 7 7 7 8 8 8 9 9 8 7 6 6 6 3 -1 -7 -10 -11 -9 -2 1 2
5 3 3 5 5 6 6 8 9 9 8 8 8 7 5 2 1 3 4 6 7 8 8 8 8 8 9 9 9 9 8 7 7 6 6 5 0 -3 3 5 4 3 3
5 2 4 7 9 9 10 9 9 9 9 8 5 5 6 6 4 5 6 7 8 8 9 9 8 9 9 9 9 9 9 9 8 7 7 6 5 4 5 5 5 4 4
5 6 7 8 10 10 10 10 10 9 8 8 6 6 5 6 6 6 6 7 8 9 10 9 8 8 8 8 9 9 9 9 9 9 8 7 7 6 5 5 5 4 4
6 6 8 9 10 11 11 11 11 9 8 7 6 6 6 7 7 8 8 8 9 10 10 10 9 8 8 8 8 8 9 10 9 9 9 8 7 7 6 6 4 3 3
7 7 9 10 11 11 11 10 8 8 8 7 8 7 7 7 7 7 8 9 10 10 11 11 10 9 8 8 8 6 7 9 10 9 9 9 8 8 7 6 6 5 4
12 11 9 9 9 9 9 8 8 8 8 8 9 9 8 8 8 8 9 10 11 11 10 10 10 10 9 8 8 8 7 7 8 8 8 9 9 8 8 8 7 5 4
12 12 12 11 10 10 10 10 10 9 9 10 10 10 10 9 8 9 10 11 11 11 10 10 9 10 9 8 8 8 8 6 6 6 6 7 8 8 8 7 7 6 5
12 12 13 12 12 10 8 9 10 10 10 11 11 11 11 11 10 10 10 11 11 11 11 10 9 9 8 8 8 8 8 7 7 6 6 6 7 7 7 8 7 7 6
13 13 12 12 11 12 9 10 10 9 10 10 11 11 11 11 11 11 10 10 11 11 10 10 9 9 9 8 8 7 7 7 6 6 5 5 5 5 6 7 8 7 7
13 12 12 12 12 12 12 12 11 10 10 9 9 10 9 9 9 9 10 10 10 10 9 8 9 8 8 8 7 7 5 5 4 3 4 5 3 2 1 4 7 8 7
11 11 11 10 10 11 11 10 9 9 9 8 8 8 9 9 7 8 9 10 10 10 9 8 8 9 8 7 6 6 6 5 3 3 4 3 5 5 4 4 6 8 7
8 8 8 9 8 8 8 9 9 8 7 7 6 7 6 6 7 6 8 9 9 10 9 8 8 8 8 7 6 6 4 3 4 4 5 7 5 3 5 6 8 8 6
8 8 9 8 8 8 8 9 8 9 8 8 8 5 4 6 6 8 7 9 10 10 10 9 7 8 8 7 6 6 4 3 4 4 4 4 4 2 3 6 6 6 6
6 5 5 5 6 6 5 4 5 4 4 4 7 7 7 6 9 10 10 9 9 10 9 9 8 8 8 7 6 6 5 4 3 4 3 2 3 2 2 2 3 3 4
5 5 6 7 7 6 5 6 7 5 1 -1 -2 -1 1 3 7 9 8 8 8 9 9 8 8 8 7 6 6 5 5 4 3 3 3 2 2 1 2 2 2 2 1
6 7 8 8 8 7 4 0 -2 -2 -2 -2 -2 -2 -1 5 7 8 8 9 8 8 9 8 8 8 7 6 5 4 3 2 3 2 2 2 2 2 2 2 2 1 1
1 -1 1 -0 -1 -2 -1 -1 -1 -1 -0 -0 0 0 1 4 6 7 7 8 8 8 7 8 8 7 6 5 4 3 2 2 2 2 1 1 2 2 1 1 1 1 0
1 -1 -1 -1 0 0 0 0 0 0 0 1 2 2 4 5 7 6 6 8 7 8 8 7 6 6 5 4 3 2 1 1 1 1 1 1 1 1 0 0 -0 -1 -1
0 -1 -1 -0 -1 -1 -1 -1 -1 -1 -0 -0 1 5 6 6 7 7 7 7 7 7 6 6 4 3 3 3 2 1 1 1 1 0 0 -0 -1 -1 -1 -2 -4 -10 -18
-0 -0 -0 -0 0 0 0 0 -0 -0 -0 1 0 2 4 5 5 6 6 6 6 5 5 4 2 2 2 2 1 1 1 1 -0 -1 -2 -4 -7 -12 -16 -22 -26 -27 -27
-0 0 0 0 0 0 0 0 -0 -0 0 0 1 2 3 4 4 4 4 4 4 5 2 1 2 2 2 1 1 1 1 -0 -2 -4 -6 -15 -21 -24 -26 -26 -26 -22 -20
0 0 1 1 0 0 0 0 -0 -1 0 1 1 2 2 3 3 3 3 3 3 2 1 1 1 1 1 1 1 -0 -1 -2 -4 -11 -20 -22 -25 -24 -22 -20 -18 -17 -16
1 1 1 1 1 0 0 0 -0 -1 0 1 1 1 2 2 2 2 2 1 2 2 1 1 0 -0 -1 -2 -3 -4 -5 -8 -12 -20 -24 -24 -22 -18 -17 -16 -16 -16 -15
1 1 1 1 1 0 0 0 -1 -1 1 1 0 0 1 1 1 1 1 1 1 0 0 -0 -0 -1 -4 -11 -13 -16 -19 -22 -23 -25 -25 -21 -17 -16 -16 -15 -15 -15 -15
1 1 1 1 0 0 0 -0 -1 -1 0 0 0 0 0 0 0 1 0 -1 -1 -2 -5 -12 -16 -22 -24 -25 -24 -25 -25 -27 -27 -27 -19 -16 -16 -16 -15 -16 -15 -14 -14

GFSMA_850_dewp_108.txt.gz
Dewpoint
-2 -1 -0 0 0 -0 -0 -0 0 2 4 5 5 5 5 4 4 4 5 5 6 7 7 8 8 8 8 8 8 8 8 7 6 6 5 3 -0 2 5 4 4 3 3
-2 -2 -2 -1 -1 0 1 2 2 4 6 6 5 5 5 4 4 3 4 5 7 7 8 8 9 9 8 7 8 9 9 8 8 7 6 6 4 5 5 4 4 3 3
3 2 2 2 4 4 4 5 6 8 9 8 7 7 8 8 7 4 4 6 8 9 9 9 9 9 9 8 9 9 8 8 9 8 8 7 5 5 5 4 4 3 3
4 4 5 6 7 7 7 7 8 9 9 8 8 7 6 7 7 7 6 6 7 9 10 10 10 9 8 7 8 9 9 9 9 9 8 8 7 6 6 5 4 4 3
5 4 3 4 7 9 9 10 10 10 10 9 8 8 8 7 6 7 7 8 8 8 9 10 10 10 8 7 7 7 8 9 8 8 9 8 8 7 6 6 5 4 3
5 5 6 7 8 9 10 9 10 10 10 8 8 8 7 7 7 7 8 8 9 9 10 10 9 9 9 9 9 8 8 8 8 8 9 9 8 7 7 6 5 5 4
9 7 6 7 8 8 8 10 11 10 9 9 9 8 7 8 8 7 7 8 9 9 10 10 10 9 9 8 8 6 7 7 8 7 7 8 9 8 8 7 6 5 5
11 10 10 9 9 9 9 10 11 10 10 10 10 10 9 9 9 9 9 9 9 9 10 10 10 9 10 8 8 7 8 7 7 8 7 6 6 7 8 8 7 7 6
12 11 12 11 11 11 11 11 11 10 10 10 11 11 10 10 10 9 9 9 9 9 9 9 9 9 10 9 8 6 7 7 7 7 6 6 7 6 6 7 8 7 6
11 12 12 12 12 11 11 12 12 11 10 9 11 10 10 10 11 10 10 10 9 9 10 8 9 10 10 9 7 7 7 7 6 6 4 4 3 3 4 5 6 8 7
11 12 13 13 13 12 11 11 10 9 10 10 9 7 9 10 11 11 10 10 9 9 8 8 9 9 10 9 7 7 7 6 5 5 5 4 2 2 1 1 2 6 8
12 12 11 10 9 8 11 11 11 10 11 10 10 10 10 10 9 9 9 10 8 8 8 8 7 8 10 9 8 7 7 6 5 4 3 2 3 5 6 6 5 4 5
10 10 10 10 10 9 9 9 9 10 10 10 10 10 9 9 8 9 9 8 7 7 10 8 7 8 10 9 8 8 7 6 6 5 5 5 6 6 6 3 2 5 5
10 9 8 8 6 8 9 9 8 10 10 10 9 9 9 8 8 8 8 8 7 8 9 9 8 9 10 10 8 8 8 7 6 5 3 6 6 6 5 3 3 5 7
8 8 7 6 7 8 7 6 6 8 8 6 6 7 7 7 7 7 9 9 9 9 9 9 9 9 9 9 8 8 8 7 5 5 5 4 3 3 4 2 4 7 7
8 7 6 6 5 5 6 7 8 8 7 8 6 0 -0 -0 -0 0 1 3 7 8 9 8 8 8 8 9 8 8 7 6 5 5 4 4 3 2 3 2 1 4 4
7 6 6 5 6 7 6 6 5 3 1 -1 -1 -1 -1 0 1 1 1 2 4 8 8 9 8 8 8 8 7 7 7 6 5 4 2 3 3 3 2 2 2 1 2
6 6 6 6 3 1 -0 -1 -1 -1 -1 -0 -0 -1 -0 -0 1 2 2 7 7 7 7 7 7 7 8 7 7 6 6 5 5 3 2 1 2 2 2 2 2 2 1
7 7 7 2 -0 0 -0 -0 -1 -1 -1 -1 -1 -0 -0 -0 -0 0 2 5 6 7 7 7 7 7 7 7 6 6 5 4 3 2 1 1 1 1 2 2 2 2 1
7 4 1 1 1 -0 -1 -1 -0 -0 0 -0 -0 -1 -1 -0 0 1 3 4 6 6 6 6 6 6 6 6 6 5 4 3 2 1 1 0 0 1 1 1 1 1 0
1 1 1 0 -0 -0 -0 0 0 0 0 -0 -0 -0 -0 -0 -0 1 2 3 4 5 5 5 5 5 5 5 5 5 3 2 2 1 0 0 -0 -0 -1 -1 -1 -1 -2
2 1 -0 -0 0 0 0 0 0 0 0 0 0 0 -1 -1 -0 1 2 2 3 3 4 4 4 4 4 4 3 3 2 2 1 1 1 0 -1 -2 -4 -7 -10 -14 -20
0 -0 0 0 1 1 1 1 1 1 1 1 0 -0 -1 -2 -2 0 1 2 1 2 2 3 3 3 3 3 2 2 2 1 1 0 -1 -1 -2 -5 -12 -20 -24 -26 -26
0 0 1 1 1 1 1 1 1 1 0 0 0 -0 -1 -2 -1 0 -0 -0 0 1 1 1 2 2 2 1 1 1 1 0 0 -0 -1 -6 -8 -12 -21 -24 -26 -24 -21
1 1 1 1 1 1 1 1 1 0 0 -0 -0 -1 -1 -1 0 -0 -1 -1 -0 -0 -0 0 0 0 1 1 0 0 -0 -0 -0 -1 -2 -5 -17 -23 -23 -21 -20 -18 -17
1 1 2 2 1 1 0 0 0 0 -0 -0 -1 -1 -1 -1 -1 -0 -1 -1 -0 -1 -0 -0 -0 -0 -0 0 -1 -1 -1 -1 -2 -2 -6 -10 -20 -23 -20 -19 -16 -16 -16

GFSMA_850_dewp_111.txt.gz
Dewpoint
1 1 1 2 1 1 1 2 2 2 2 4 5 4 5 4 4 4 5 5 6 7 7 8 8 8 7 6 7 8 8 8 7 6 6 4 2 5 4 4 3 2 2
0 0 1 1 1 1 1 1 1 2 4 5 5 5 4 4 3 3 4 5 6 7 8 9 9 9 8 7 7 8 8 8 8 7 7 6 4 5 5 4 3 3 2
-0 -0 -0 -0 -1 -1 -0 1 2 4 7 9 8 7 8 7 7 6 3 5 6 7 9 9 10 9 8 8 8 8 8 8 8 8 8 7 6 5 5 5 4 3 3
-1 -1 -1 0 2 3 4 4 5 8 9 9 8 8 7 6 7 7 7 6 7 8 9 9 10 9 8 7 7 8 8 9 9 8 7 7 7 6 6 5 4 4 3
4 4 4 6 6 7 7 7 7 9 9 9 9 8 8 7 6 5 6 7 7 7 8 9 10 10 9 8 8 8 8 7 8 8 8 9 8 7 7 6 5 4 4
6 6 6 8 7 9 9 9 10 10 10 10 9 8 8 8 7 7 7 8 8 8 9 10 10 9 8 8 8 8 6 7 7 7 7 8 9 8 7 7 6 5 4
7 7 7 6 8 9 9 11 11 11 11 10 9 8 8 8 8 9 8 8 8 8 9 9 10 10 10 9 10 8 7 6 7 7 7 6 7 9 8 8 7 6 5
8 7 7 8 9 9 10 11 11 11 11 10 9 9 9 9 9 9 9 9 9 9 9 9 10 10 9 10 10 8 8 7 6 6 7 7 6 6 7 7 7 7 6
11 10 10 9 9 10 10 10 11 11 10 9 10 10 10 9 9 10 9 9 8 9 10 10 8 9 9 10 10 9 7 7 7 7 7 6 5 6 6 6 7 8 7
11 11 11 10 11 11 11 11 11 11 9 8 9 10 10 10 10 10 10 10 10 10 9 10 9 8 9 10 10 9 7 7 6 5 4 5 4 3 3 4 5 6 8
10 12 11 12 11 12 9 9 11 9 9 9 9 10 10 9 9 10 10 10 10 9 9 8 7 8 7 7 9 9 8 8 6 6 4 3 3 2 1 0 1 4 6
10 11 10 12 11 11 9 9 10 11 11 11 11 10 10 10 10 10 10 9 8 8 8 7 8 7 7 7 8 9 8 8 7 6 5 2 3 5 5 6 6 5 4
10 9 11 11 10 10 10 10 10 10 10 10 10 10 9 9 9 9 9 9 8 8 7 6 8 8 8 8 9 9 8 8 7 6 6 4 4 6 6 5 4 1 4
11 10 11 11 10 9 8 9 8 8 9 9 9 9 8 7 8 8 8 8 8 9 7 8 9 9 8 9 9 9 8 8 7 7 6 5 3 6 6 5 2 -1 5
10 10 9 8 7 8 7 6 6 6 7 7 5 5 6 7 4 5 6 8 8 9 8 8 8 7 7 8 9 8 8 7 7 6 5 5 4 4 3 4 2 6 7
8 8 7 6 6 5 5 6 7 8 8 8 7 5 -0 -1 -1 -0 0 0 2 6 8 7 7 7 8 8 7 7 7 7 6 6 5 5 5 4 4 2 2 4 6
8 7 6 6 6 6 5 4 3 2 1 -1 -1 -1 -0 -0 -1 -0 0 1 2 4 7 7 8 7 8 7 7 8 7 6 6 6 5 5 3 4 3 2 2 1 2
8 6 6 6 6 3 0 -0 -0 -1 -1 -1 -1 -1 -1 -1 -1 -1 -0 -0 1 6 6 7 7 7 7 7 6 7 6 6 5 5 5 4 2 2 2 2 3 2 2
7 6 6 7 3 0 0 0 -0 -1 -1 -1 -1 -0 -1 -1 -1 -1 -0 0 1 4 6 6 6 6 7 7 7 7 6 5 5 5 4 3 1 1 2 2 2 2 2
7 7 7 3 1 1 0 -1 -1 -1 -0 -0 -0 -0 -1 -0 -0 -0 -1 -0 1 2 5 5 5 6 6 6 6 6 5 5 4 3 3 2 1 0 0 1 1 2 2
7 6 2 1 1 0 -1 -1 -0 0 0 0 -0 -0 0 0 -0 -0 -1 -0 0 2 4 4 5 5 5 5 5 5 5 4 3 2 2 1 1 0 0 0 1 1 1
3 1 2 1 -0 -0 -0 0 0 1 1 0 1 1 0 0 -0 -1 -2 -2 1 2 2 3 4 4 4 4 4 4 4 3 2 2 1 1 0 -0 -0 -1 -2 -2 -2
2 1 0 0 -0 0 0 1 1 1 1 1 1 0 0 -0 -1 -2 -2 -1 0 1 1 1 2 2 3 3 3 3 2 2 2 2 1 0 0 -0 -2 -4 -7 -12 -16
1 0 0 0 1 1 1 1 1 1 0 0 0 -0 -0 -1 -1 -2 -1 -1 -1 -1 -0 -0 0 1 2 2 2 1 1 1 1 1 0 -0 -1 -1 -3 -8 -16 -21 -24
0 0 1 1 1 1 1 1 0 0 0 -0 -0 -1 -1 -1 -1 -1 -0 -1 -1 -1 -0 -0 -0 -0 0 1 1 1 1 0 0 -0 -0 -1 -2 -7 -11 -16 -21 -22 -23
1 1 1 2 2 1 0 -0 -0 0 0 -0 -1 -1 -1 -1 -1 -1 -1 -1 -1 -1 -0 -0 -0 -0 0 0 0 0 -0 -0 -0 -1 -1 -1 -2 -12 -20 -22 -22 -19 -17

GFSMA_850_dewp_114.txt.gz
Dewpoint
11 11 11 12 11 8 4 2 4 3 5 6 5 6 5 7 5 6 10 5 6 7 7 8 8 7 6 6 7 7 7 7 7 6 6 4 3 5 4 4 3 2 1
11 11 10 10 7 4 3 3 3 3 3 7 6 4 4 4 4 4 6 6 6 7 8 9 9 9 8 6 7 8 8 8 8 8 7 6 5 5 5 4 3 3 2
8 4 3 3 3 2 2 2 2 5 9 7 9 7 7 7 6 5 3 6 7 7 8 9 10 9 7 6 6 7 8 8 8 8 8 8 7 5 5 5 4 4 3
3 2 2 2 2 2 1 1 2 7 11 10 10 9 8 6 7 7 7 5 6 7 8 9 9 9 8 7 7 6 6 7 8 7 7 7 8 7 6 5 5 4 3
2 2 2 2 0 1 3 5 6 9 10 10 9 8 8 8 8 7 6 7 7 7 7 9 10 10 9 8 8 8 7 6 7 7 8 7 8 8 7 6 6 4 4
0 1 1 2 4 7 7 8 8 10 11 10 9 8 8 7 6 5 6 6 7 8 8 8 10 10 9 10 9 9 8 7 6 6 7 7 7 9 8 7 6 6 4
4 6 7 9 10 10 10 11 11 11 11 10 9 10 7 7 8 8 9 8 9 8 8 9 10 10 10 10 10 10 9 8 7 7 7 6 6 6 9 8 7 7 5
9 8 8 9 9 9 11 11 11 11 11 9 9 10 11 11 9 8 8 9 10 9 8 9 9 10 10 10 9 10 9 8 7 7 7 6 7 7 6 8 8 8 7
6 8 9 9 9 10 10 10 10 11 10 9 9 10 11 11 11 9 9 9 9 9 9 10 10 9 9 9 10 10 9 9 7 7 7 7 6 6 6 6 6 7 8
8 9 9 9 9 10 10 10 10 10 9 9 10 9 9 10 11 10 10 9 9 10 10 10 10 10 9 10 9 10 9 9 8 7 6 6 5 5 4 3 5 5 6
11 10 10 10 10 10 10 10 9 7 8 9 9 9 10 10 10 10 10 10 10 8 9 9 9 7 7 7 7 8 8 9 8 7 6 5 4 5 3 2 1 3 5
10 11 11 11 11 11 11 10 9 8 8 10 10 10 10 10 9 9 10 9 9 8 8 8 7 7 7 7 7 8 8 9 9 8 6 6 5 5 5 5 5 6 5
10 9 10 10 12 11 9 10 9 9 11 11 11 11 10 9 9 8 9 9 9 9 7 7 7 6 7 6 6 7 8 9 8 8 7 7 5 4 5 6 5 5 3
10 9 9 10 10 10 11 10 10 10 10 10 10 10 10 8 7 9 10 9 9 8 8 5 3 5 6 6 7 7 8 9 8 7 7 6 5 5 5 4 1 1 -1
10 9 8 10 11 11 10 9 8 7 8 8 9 9 7 5 7 4 4 6 8 8 7 7 7 5 7 8 8 8 6 7 7 7 7 6 5 5 4 4 3 1 -0
8 9 11 11 10 8 8 6 6 6 7 7 7 6 7 2 -1 -1 -1 0 1 4 7 6 6 5 7 6 7 8 7 7 7 7 6 6 6 5 4 4 3 4 7
10 10 11 8 7 6 5 5 6 7 7 6 4 -0 -1 -1 -1 -1 -1 -0 1 2 5 5 6 5 7 7 7 7 7 7 7 7 6 6 5 5 3 3 3 2 2
9 9 7 6 6 6 6 5 3 1 -0 -1 -0 -1 -1 -1 -1 -1 -1 -1 -0 0 1 6 5 6 5 6 7 7 7 7 6 5 6 5 5 4 2 3 3 3 3
8 8 6 6 6 6 3 0 -0 -0 -1 -1 -1 -1 -1 -1 -1 -1 -1 -1 -1 -0 2 2 4 5 6 5 6 7 6 6 6 5 4 4 4 3 1 1 2 2 3
8 7 6 6 7 2 0 0 0 -1 -1 -1 -1 -1 -0 -1 -0 -0 -0 -0 -0 -0 0 2 5 5 5 5 5 6 6 6 5 4 3 3 3 2 1 1 1 2 2
7 7 7 7 2 1 1 0 -1 -1 -0 -0 0 0 -0 0 0 0 -0 -0 -1 -1 -0 1 3 4 4 5 5 5 5 4 3 3 3 3 2 1 1 1 0 1 1
7 7 6 2 1 1 0 -0 -0 0 0 1 1 1 1 1 0 -0 -0 -1 -2 -3 -2 1 2 2 3 4 4 4 4 3 3 3 2 2 1 1 1 0 0 0 0
6 4 1 1 1 -0 -0 0 1 1 1 1 1 1 0 -0 -0 -0 -1 -1 -2 -2 -0 0 1 1 2 2 2 3 3 3 3 3 2 2 1 1 0 -0 -1 -2 -3
2 1 1 0 0 0 1 1 1 1 1 0 0 0 -0 -1 -1 -1 -1 -1 -1 -1 -1 -0 0 0 0 1 1 2 2 1 1 1 1 1 1 0 -0 -1 -3 -5 -10
2 1 0 0 1 1 1 1 0 -0 -0 -0 0 -0 -1 -1 -1 -1 -1 -1 -1 -1 -1 -1 -0 -0 -0 0 1 1 1 1 1 1 1 0 -0 -0 -1 -2 -4 -8 -18
1 0 1 1 1 1 1 -0 -1 -1 -1 -0 -0 -0 -0 -1 -1 -1 -1 -1 -1 -1 -1 -1 -1 -0 -0 0 0 0 0 0 0 0 0 -1 -0 -1 -5 -8 -12 -17 -21

GFSMA_850_dewp_117.txt.gz
Dewpoint
12 12 13 13 12 12 11 11 10 10 10 10 10 9 10 10 10 10 9 5 5 6 7 7 8 7 6 6 6 7 7 7 7 7 6 5 4 5 4 4 3 3 2
12 12 12 13 12 12 11 10 9 10 10 10 9 9 8 8 9 10 10 7 5 6 7 8 9 9 8 6 5 6 8 8 8 8 8 7 5 5 5 4 4 3 2
12 12 12 12 12 11 10 9 9 9 9 10 10 9 8 8 7 7 9 10 7 6 7 8 10 10 8 5 6 6 5 7 7 7 7 7 7 6 5 5 4 4 3
12 12 12 12 11 10 9 9 8 8 11 12 12 11 10 9 10 10 8 7 9 9 7 8 9 9 9 7 8 8 6 5 6 6 7 7 7 7 6 6 5 4 4
12 11 11 10 10 9 9 8 8 10 12 12 10 10 9 8 7 9 9 9 9 8 10 11 9 9 10 9 8 8 8 7 7 7 6 7 8 8 8 7 6 5 4
11 10 10 9 9 8 8 8 11 11 12 12 9 8 7 8 9 8 9 10 9 9 8 10 10 9 10 9 9 9 8 8 7 7 6 7 7 7 8 8 7 6 6
9 8 9 10 9 8 11 9 9 9 9 9 9 9 10 11 10 9 8 8 10 8 9 10 11 11 11 10 10 10 10 9 8 7 7 6 7 7 7 8 8 7 7
5 6 10 11 11 12 12 11 10 10 10 9 10 11 11 11 11 9 9 8 9 9 9 9 10 10 10 10 11 11 10 10 8 8 7 7 6 7 7 7 7 8 8
8 6 12 12 11 10 11 10 9 10 10 12 11 11 10 11 11 11 9 9 10 9 9 9 9 10 10 9 9 9 10 10 9 8 7 7 6 6 5 5 6 7 8
11 10 10 8 7 7 9 9 9 9 11 12 11 10 10 9 10 11 10 10 9 9 10 10 10 10 9 9 9 9 8 9 8 8 8 7 6 5 4 4 4 6 6
6 5 7 8 9 9 10 10 10 10 11 11 9 10 9 9 10 10 10 10 10 9 8 8 9 8 7 7 7 6 6 7 8 8 8 7 6 6 6 4 4 6 5
5 8 9 9 9 10 10 10 10 9 9 11 9 10 10 11 11 9 9 9 10 9 8 7 7 7 6 7 7 7 7 8 8 8 6 6 6 7 6 5 4 5 5
9 10 10 10 10 10 11 10 8 7 9 9 9 10 11 11 10 10 10 10 10 9 8 6 6 7 7 7 7 8 8 8 8 8 7 6 8 7 6 5 5 5 5
12 11 10 10 10 9 8 7 7 9 10 11 11 11 11 10 9 8 7 8 9 9 8 8 7 5 4 5 6 7 7 8 8 8 7 4 7 7 6 5 4 3 0
11 10 10 9 9 7 8 8 10 11 11 11 10 9 9 9 8 6 7 6 8 8 7 6 8 7 6 4 7 7 8 8 7 8 7 7 7 7 6 5 4 2 0
10 10 10 9 9 8 7 10 11 9 9 7 7 7 8 6 6 4 -1 -0 0 3 7 3 5 4 3 5 4 7 7 7 7 7 7 7 7 6 6 5 3 2 2
9 9 9 9 8 7 9 10 8 6 6 6 7 7 7 4 -1 -1 -1 -1 0 3 6 6 3 2 2 5 5 6 6 7 6 6 6 6 6 6 5 5 3 2 3
8 6 8 9 10 10 9 9 6 6 6 6 4 1 -1 -1 -1 -1 -1 -0 -1 0 2 3 3 2 4 5 5 5 6 6 6 6 6 5 5 5 5 4 2 2 3
8 9 10 10 10 9 9 6 6 5 2 -0 -1 -1 -1 -1 -1 -1 -1 -1 -1 -0 0 1 2 2 3 4 5 4 5 6 6 5 5 5 5 4 4 3 2 1 2
10 10 10 9 9 7 6 6 2 0 -0 -0 -1 -1 -1 -0 -0 -1 -0 -0 -0 -0 -0 -0 1 1 2 4 4 4 4 5 5 5 4 4 4 4 3 2 1 1 2
10 9 8 6 6 6 6 2 0 0 -0 -1 -1 -0 -0 -0 -0 0 0 0 0 -0 -1 -2 -1 2 2 2 3 4 4 5 4 4 3 3 3 3 2 2 1 1 1
9 8 7 6 6 7 2 1 1 -0 -1 -0 -0 0 0 0 1 1 -0 -0 -0 -1 -2 -2 -2 -0 1 1 2 3 3 4 3 3 3 3 3 2 2 1 1 0 1
8 7 7 7 6 3 1 0 -0 -0 0 0 1 1 1 1 -0 -0 -0 -1 -1 -1 -2 -2 -1 -0 0 0 1 2 2 2 3 3 2 2 2 2 1 1 0 0 -0
8 7 7 5 2 1 0 0 0 1 1 1 1 0 0 0 -0 -1 -1 -1 -1 -1 -1 -1 -1 -1 -1 -0 0 0 1 1 2 2 2 1 1 1 1 0 0 -0 -2
6 4 2 1 1 0 0 1 1 1 0 -0 -0 -0 -0 -0 -1 -1 -1 -1 -1 -1 -1 -1 -1 -1 -0 -0 -0 0 0 1 1 1 1 1 1 0 0 -0 -1 -1 -3
2 1 1 1 0 0 1 1 1 -0 -1 -1 -1 -1 -1 -1 -1 -1 -1 -1 -1 -1 -1 -1 -1 -1 -1 -1 -0 -0 0 0 0 0 0 0 0 -0 -1 -1 -1 -4 -5